Home > Weather > Split > Past weeks

Flag for Croatia Past Weather in Split, Croatia — Yesterday and Last 2 Weeks

Now
58 °F

Overcast.


Feels Like: 58 °F
Forecast: 48 / 73 °F
Wind: 1 mph from Northeast

Location: Split/Marjan

Current Time: May 24, 2016 at 1:56:46 PM

Latest Report: May 24, 2016 at 1:00 PM


Visibility: 9 mi

Pressure: 29.83 "Hg

Humidity: 75%

Dew Point: 51 °F

Location of SplitLocation

Past Weather in Split — Graph

°F

Split Temperature Yesterday

Maximum temperature yesterday: 73 °F (at 1:00 PM)
Minimum temperature yesterday: 64 °F (at 5:00 AM)
Average temperature yesterday: 69 °F

High & Low Weather Summary for the Past Weeks

 TemperatureHumidityPressure
High79 °F (May 22, 2:00 PM)94% (May 12, 1:00 PM)30.09 "Hg (May 12, 1:00 PM)
Low55 °F (May 17, 5:00 AM)28% (May 21, 1:00 PM)29.55 "Hg (May 12, 3:00 PM)
Average65 °F57%29.87 "Hg
* Reported May 9 12:00 PM — May 24 12:00 PM, Split, Weather by CustomWeather, © 2016

Note: Actual official high and low records may vary slightly from our data, if they occured in-between our weather recording intervals... More about our weather records

Advertising

Split Weather History for the Previous 24 Hours

Scroll right to see more
 ConditionsComfort  
Time TempWeatherWind HumidityBarometerVisibility
12:00 PM
Tue, May 24
57 °FOvercast.2 mph80%29.83 "Hg9 mi
11:00 AM59 °FLight rain. Overcast.7 mph74%29.81 "Hg6 mi
10:00 AM60 °FOvercast.No wind72%29.81 "Hg12 mi
9:00 AM59 °FOvercast.1 mph73%29.81 "Hg12 mi
8:00 AM59 °FThunderstorms. Overcast.1 mph74%29.80 "Hg9 mi
7:00 AM60 °FPartly sunny.No wind71%29.78 "Hg25 mi
6:00 AM58 °FPartly sunny.1 mph70%29.78 "Hg25 mi
5:00 AM57 °FPassing clouds.1 mph70%29.77 "Hg19 mi
11:00 PM
Mon, May 23
66 °FPassing clouds.7 mph71%29.76 "Hg12 mi
10:00 PM67 °FPassing clouds.10 mph68%29.76 "Hg12 mi
9:00 PM68 °FOvercast.9 mph66%29.77 "Hg16 mi
8:00 PM68 °FOvercast.9 mph65%29.77 "Hg22 mi
5:00 PM72 °FScattered clouds.10 mph49%29.83 "Hg25 mi
4:00 PM72 °FScattered clouds.12 mph46%29.85 "Hg22 mi
3:00 PM72 °FPassing clouds.12 mph47%29.87 "Hg25 mi
2:00 PM73 °FPassing clouds.12 mph46%29.88 "Hg22 mi
1:00 PM73 °FScattered clouds.9 mph45%29.89 "Hg22 mi
Weather by CustomWeather, © 2016

See weather overviewHow to use our weather pages